TimeCDT,TemperatureF,Dew PointF,Humidity,Sea Level PressureIn,VisibilityMPH,Wind Direction,Wind SpeedMPH,Gust SpeedMPH,PrecipitationIn,Events,Conditions,WindDirDegrees,DateUTC
12:10 AM,64.4,55.4,73,30.12,10.0,North,5.8,-,N/A,,Partly Cloudy,360,2013-05-24 05:10:00
12:35 AM,64.4,55.4,73,30.13,10.0,NNW,3.5,-,N/A,,Clear,340,2013-05-24 05:35:00
12:55 AM,62.6,55.4,77,30.14,10.0,NNW,4.6,-,N/A,,Clear,340,2013-05-24 05:55:00
1:15 AM,62.6,55.4,77,30.15,10.0,NW,4.6,-,N/A,,Clear,320,2013-05-24 06:15:00
1:35 AM,62.6,55.4,77,30.14,10.0,North,4.6,-,N/A,,Clear,350,2013-05-24 06:35:00
1:55 AM,62.6,55.4,77,30.14,10.0,North,6.9,-,N/A,,Clear,350,2013-05-24 06:55:00
2:15 AM,60.8,55.4,82,30.13,10.0,North,6.9,-,N/A,,Clear,350,2013-05-24 07:15:00
2:35 AM,60.8,55.4,82,30.15,10.0,NNW,5.8,-,N/A,,Clear,340,2013-05-24 07:35:00
2:55 AM,59.0,55.4,88,30.15,10.0,North,5.8,-,N/A,,Clear,350,2013-05-24 07:55:00
3:15 AM,59.0,55.4,88,30.15,10.0,North,6.9,-,N/A,,Clear,350,2013-05-24 08:15:00
3:35 AM,59.0,53.6,82,30.15,10.0,North,8.1,16.1,N/A,,Clear,360,2013-05-24 08:35:00
3:55 AM,59.0,53.6,82,30.15,10.0,North,9.2,16.1,N/A,,Clear,360,2013-05-24 08:55:00
4:15 AM,59.0,53.6,82,30.16,10.0,North,6.9,-,N/A,,Mostly Cloudy,10,2013-05-24 09:15:00
4:35 AM,59.0,53.6,82,30.17,10.0,NNE,12.7,-,N/A,,Overcast,20,2013-05-24 09:35:00
4:55 AM,59.0,53.6,82,30.18,10.0,North,9.2,-,N/A,,Overcast,360,2013-05-24 09:55:00
5:15 AM,57.2,53.6,88,30.18,10.0,North,6.9,-,N/A,,Overcast,360,2013-05-24 10:15:00
5:35 AM,57.2,51.8,82,30.19,10.0,North,6.9,-,N/A,,Mostly Cloudy,360,2013-05-24 10:35:00
5:55 AM,57.2,51.8,82,30.20,10.0,NNW,4.6,-,N/A,,Overcast,340,2013-05-24 10:55:00
6:15 AM,57.2,51.8,82,30.21,10.0,North,8.1,-,N/A,,Overcast,360,2013-05-24 11:15:00
6:35 AM,57.2,50.0,77,30.22,7.0,North,8.1,-,N/A,,Overcast,10,2013-05-24 11:35:00
6:55 AM,57.2,50.0,77,30.24,10.0,North,9.2,-,N/A,,Overcast,360,2013-05-24 11:55:00
7:15 AM,59.0,50.0,72,30.25,10.0,North,6.9,-,N/A,,Overcast,10,2013-05-24 12:15:00
7:30 AM,57.2,50.0,77,30.26,10.0,NNE,9.2,16.1,N/A,,Overcast,30,2013-05-24 12:30:00
7:55 AM,57.2,48.2,72,30.27,10.0,NNE,10.4,-,N/A,,Overcast,20,2013-05-24 12:55:00
8:15 AM,59.0,48.2,67,30.28,10.0,North,9.2,-,N/A,,Overcast,10,2013-05-24 13:15:00
8:35 AM,59.0,48.2,67,30.29,10.0,NNE,11.5,16.1,N/A,,Mostly Cloudy,30,2013-05-24 13:35:00
8:55 AM,60.8,50.0,68,30.29,10.0,NNE,10.4,-,N/A,,Partly Cloudy,20,2013-05-24 13:55:00
9:15 AM,62.6,50.0,63,30.29,10.0,North,10.4,-,N/A,,Clear,10,2013-05-24 14:15:00
9:35 AM,62.6,50.0,63,30.29,10.0,NE,9.2,-,N/A,,Clear,40,2013-05-24 14:35:00
9:55 AM,64.4,50.0,59,30.29,10.0,NE,11.5,-,N/A,,Clear,50,2013-05-24 14:55:00
10:15 AM,64.4,50.0,59,30.29,10.0,NE,9.2,18.4,N/A,,Clear,40,2013-05-24 15:15:00
10:35 AM,66.2,50.0,56,30.29,10.0,NE,11.5,17.3,N/A,,Clear,40,2013-05-24 15:35:00
10:55 AM,66.2,48.2,52,30.29,10.0,NE,13.8,-,N/A,,Clear,40,2013-05-24 15:55:00
11:15 AM,66.2,48.2,52,30.30,10.0,NE,11.5,17.3,N/A,,Clear,40,2013-05-24 16:15:00
11:35 AM,68.0,48.2,49,30.29,10.0,NNE,8.1,-,N/A,,Clear,30,2013-05-24 16:35:00
11:55 AM,68.0,50.0,52,30.29,10.0,North,6.9,-,N/A,,Clear,360,2013-05-24 16:55:00
12:15 PM,68.0,48.2,49,30.29,10.0,NNE,5.8,-,N/A,,Clear,20,2013-05-24 17:15:00
12:35 PM,71.6,48.2,43,30.29,10.0,NNE,8.1,16.1,N/A,,Clear,20,2013-05-24 17:35:00
12:55 PM,71.6,46.4,41,30.29,7.0,NNE,10.4,16.1,N/A,,Clear,30,2013-05-24 17:55:00
1:15 PM,71.6,44.6,38,30.28,10.0,NNE,8.1,-,N/A,,Clear,20,2013-05-24 18:15:00
1:35 PM,71.6,44.6,38,30.28,10.0,NNE,9.2,-,N/A,,Clear,20,2013-05-24 18:35:00
1:55 PM,73.4,46.4,38,30.28,10.0,NE,6.9,-,N/A,,Clear,50,2013-05-24 18:55:00
2:15 PM,73.4,46.4,38,30.28,10.0,North,11.5,-,N/A,,Clear,10,2013-05-24 19:15:00
2:35 PM,73.4,46.4,38,30.28,10.0,NNE,6.9,17.3,N/A,,Clear,20,2013-05-24 19:35:00
2:55 PM,73.4,46.4,38,30.27,10.0,NE,10.4,17.3,N/A,,Clear,40,2013-05-24 19:55:00
3:15 PM,73.4,44.6,36,30.27,10.0,NNE,11.5,17.3,N/A,,Clear,30,2013-05-24 20:15:00
3:35 PM,73.4,46.4,38,30.26,10.0,ENE,11.5,-,N/A,,Clear,70,2013-05-24 20:35:00
3:55 PM,75.2,46.4,36,30.27,10.0,ENE,10.4,-,N/A,,Clear,70,2013-05-24 20:55:00
4:15 PM,73.4,46.4,38,30.26,10.0,NNE,12.7,-,N/A,,Clear,20,2013-05-24 21:15:00
4:35 PM,73.4,46.4,38,30.26,10.0,NNE,10.4,-,N/A,,Clear,20,2013-05-24 21:35:00
4:55 PM,73.4,46.4,38,30.26,10.0,NNE,10.4,17.3,N/A,,Clear,30,2013-05-24 21:55:00
5:15 PM,73.4,46.4,38,30.25,10.0,NE,9.2,-,N/A,,Clear,40,2013-05-24 22:15:00
5:35 PM,73.4,46.4,38,30.25,10.0,NNE,8.1,-,N/A,,Clear,30,2013-05-24 22:35:00
5:55 PM,73.4,46.4,38,30.24,10.0,NE,8.1,-,N/A,,Clear,40,2013-05-24 22:55:00
6:15 PM,73.4,46.4,38,30.23,10.0,NE,6.9,-,N/A,,Clear,50,2013-05-24 23:15:00
6:35 PM,71.6,48.2,43,30.23,10.0,NE,6.9,-,N/A,,Clear,50,2013-05-24 23:35:00
6:55 PM,69.8,48.2,46,30.22,10.0,NE,5.8,-,N/A,,Clear,40,2013-05-24 23:55:00
7:10 PM,68.0,48.2,49,30.22,10.0,NE,5.8,-,N/A,,Clear,40,2013-05-25 00:10:00
7:35 PM,66.2,48.2,52,30.22,10.0,NNE,3.5,-,N/A,,Clear,30,2013-05-25 00:35:00
7:55 PM,66.2,53.6,64,30.24,10.0,Calm,Calm,-,N/A,,Clear,0,2013-05-25 00:55:00
8:15 PM,62.6,53.6,72,30.24,10.0,North,3.5,-,N/A,,Clear,10,2013-05-25 01:15:00
8:35 PM,60.8,53.6,77,30.24,10.0,Calm,Calm,-,N/A,,Clear,0,2013-05-25 01:35:00
8:55 PM,60.8,53.6,77,30.24,10.0,Calm,Calm,-,N/A,,Clear,0,2013-05-25 01:55:00
9:15 PM,59.0,53.6,82,30.25,10.0,Calm,Calm,-,N/A,,Clear,0,2013-05-25 02:15:00
9:30 PM,59.0,53.6,82,30.26,10.0,Calm,Calm,-,N/A,,Clear,0,2013-05-25 02:30:00
9:55 PM,59.0,53.6,82,30.26,4.0,Calm,Calm,-,N/A,,Haze,0,2013-05-25 02:55:00
10:15 PM,57.2,53.6,88,30.27,5.0,Calm,Calm,-,N/A,,Clear,0,2013-05-25 03:15:00
10:35 PM,57.2,51.8,82,30.27,10.0,Calm,Calm,-,N/A,,Clear,0,2013-05-25 03:35:00
10:55 PM,55.4,53.6,94,30.26,10.0,Calm,Calm,-,N/A,,Clear,0,2013-05-25 03:55:00
11:15 PM,55.4,51.8,88,30.27,10.0,Calm,Calm,-,N/A,,Clear,0,2013-05-25 04:15:00
11:35 PM,57.2,50.0,77,30.26,10.0,Calm,Calm,-,N/A,,Clear,0,2013-05-25 04:35:00
11:55 PM,57.2,50.0,77,30.26,10.0,Calm,Calm,-,N/A,,Clear,0,2013-05-25 04:55:00